Flag for Micronesia Weather past 2 weeks in Colonia, Yap, Micronesia

Now
82 °F

Cloudy.


Feels Like: 90 °F
Forecast: 78 / 87 °F
Wind: 12 mph from Southwest

Location: Yap Island

Current Time: Jul 26, 2014 at 9:47:04 AM

Latest Report: Jul 26, 2014 at 8:50 AM


Visibility: 12 mi

Pressure: 29.76 "Hg

Humidity: 86%

Dew point: 77 °F

Location of ColoniaLocation

Historic Weather in Colonia — Graph

°F

Colonia temperature yesterday

Maximum temperature yesterday: 87 °F (at 11:50 AM)
Minimum temperature yesterday: 80 °F (at 3:50 AM)
Average temperature yesterday: 83 °F

Past Weeks' High & Low Weather Summary

 TemperatureHumidityPressure
High97 °F (Jul 19, 6:57 AM)95% (Jul 16, 5:50 AM)29.88 "Hg (Jul 16, 5:50 AM)
Low75 °F (Jul 15, 10:53 PM)58% (Jul 11, 1:50 PM)29.66 "Hg (Jul 25, 4:51 PM)
Average82 °F84%29.78 "Hg
* Reported Jul 11 8:52 AM — Jul 26 8:50 AM, Colonia, Weather by CustomWeather, © 2014

Note: Actual official high and low records may vary slightly from our data, if they occured in-between our weather recording intervals... More about our weather records

Advertising

Colonia weather history for previous 24 hours

 ConditionsComfort  
Time TempWeatherWind HumidityBarometerVisibility
8:50 AM
Jul 26
82 °FCloudy.12 mph86%29.76 "Hg12 mi
7:50 AM78 °FSprinkles. Mostly cloudy.10 mph93%29.75 "Hg10 mi
6:50 AM78 °FSprinkles. Mostly cloudy.14 mph94%29.73 "Hg10 mi
5:50 AM82 °FSprinkles. Mostly cloudy.14 mph83%29.71 "Hg10 mi
4:50 AM82 °FOvercast.14 mph85%29.70 "Hg12 mi
3:50 AM81 °FOvercast.12 mph85%29.70 "Hg12 mi
2:50 AM80 °FOvercast.14 mph90%29.71 "Hg12 mi
1:50 AM79 °FOvercast.12 mph90%29.72 "Hg12 mi
12:53 AM81 °FOvercast.14 mph87%29.75 "Hg12 mi
11:51 PM
Jul 25
81 °FOvercast.10 mph89%29.75 "Hg12 mi
10:51 PM82 °FOvercast.9 mph86%29.76 "Hg12 mi
9:54 PM82 °FSprinkles. Overcast.12 mph87%29.75 "Hg11 mi
8:59 PM81 °FPartly cloudy.12 mph85%29.73 "Hg12 mi
7:52 PM82 °FBroken clouds.8 mph85%29.71 "Hg12 mi
5:53 PM81 °FBroken clouds.9 mph91%29.68 "Hg12 mi
4:51 PM84 °FBroken clouds.9 mph80%29.66 "Hg12 mi
3:51 PM86 °FBroken clouds.10 mph76%29.68 "Hg12 mi
2:51 PM82 °FBroken clouds.9 mph87%29.71 "Hg12 mi
1:50 PM87 °FBroken clouds.10 mph77%29.71 "Hg12 mi
12:50 PM87 °FBroken clouds.12 mph77%29.73 "Hg12 mi
11:50 AM87 °FPartly sunny.12 mph76%29.73 "Hg12 mi
10:50 AM85 °FBroken clouds.14 mph79%29.74 "Hg12 mi
9:50 AM85 °FBroken clouds.12 mph79%29.75 "Hg12 mi
Weather by CustomWeather, © 2014

See weather overviewHow to use our weather pages